Probability
0 0 0 0 0 0 0 0 0 0 0 0 0 0 0 0 0 0 0 0 0 0 0 0 0 0 0 0 0 0 0 0 0 0 0 0 0 0 0 0 0 0 0 0 0 0 0 0 0
0 0 0 0 0 0 0 0 0 0 0 0 0 0 0 0 0 0 0 0 0 0 0 0 0 0 0 0 0 0 0 0 0 0 0 0 0 0 0 0 0 0 0 0 0 0 0 0 0
0 0 0 0 0 0 0 0 0 0 0 0 0 0 0 0 0 0 0 0 0 0 0 0 0 1 2 1 0 0 0 0 0 0 0 0 0 0 0 0 0 0 0 0 0 0 0 0 0
0 0 0 0 0 0 0 0 0 0 0 0 0 0 0 0 0 0 0 0 0 0 0 0 1 2 3 2 1 0 0 0 0 0 0 0 0 0 0 0 0 0 0 0 0 0 0 0 0
0 0 0 0 0 0 0 0 0 0 0 0 0 0 0 0 0 0 0 0 0 0 0 0 1 2 3 2 1 0 0 0 0 0 0 0 0 0 0 0 0 0 0 0 0 0 0 0 0
0 0 0 0 0 0 0 0 0 0 0 0 0 0 0 0 0 0 0 0 0 0 0 0 1 2 2 2 1 0 0 0 0 0 0 0 0 0 0 0 0 0 0 0 0 0 0 0 0
0 0 0 0 0 0 0 0 0 0 0 0 0 0 0 0 0 0 1 1 1 0 0 0 0 1 1 1 0 0 0 0 0 0 0 0 0 0 0 0 0 0 0 0 0 0 0 0 0
0 0 0 0 0 0 0 0 0 0 0 0 0 0 0 0 0 0 1 1 1 0 0 0 0 0 0 0 0 0 0 0 0 0 0 0 0 0 0 0 0 0 0 0 0 0 0 0 0
0 0 0 0 0 0 0 0 0 0 0 0 0 0 0 0 0 0 0 1 0 0 0 0 0 0 0 0 0 0 0 0 0 0 0 0 0 0 0 0 0 0 0 0 0 0 0 0 0
0 0 0 0 0 0 0 0 0 0 0 0 0 0 0 0 0 0 0 1 0 0 0 0 0 0 0 0 0 0 0 0 0 0 0 0 0 0 0 0 0 0 0 0 0 0 0 0 0
0 0 0 0 0 0 0 0 0 0 0 0 0 0 0 0 0 0 0 0 0 0 0 0 0 0 0 0 0 0 0 0 0 0 0 0 0 0 0 0 0 0 0 0 0 0 0 0 0
0 0 0 0 0 0 0 0 0 0 0 0 0 0 0 0 0 0 0 0 0 0 0 0 0 0 0 0 0 0 0 0 0 0 0 0 0 0 0 0 0 0 0 0 0 0 0 0 0
0 0 0 0 0 0 0 0 0 0 0 0 0 0 0 0 0 0 0 0 0 0 0 0 0 0 0 0 0 0 0 0 0 0 0 0 0 0 0 0 0 0 0 0 0 0 0 0 0
0 0 0 0 0 0 0 0 0 0 0 0 0 0 0 0 0 0 0 0 0 0 0 1 1 1 0 0 0 0 0 0 0 0 0 0 0 0 0 0 0 0 0 0 0 0 0 0 0
0 0 0 0 0 0 0 0 0 0 0 0 0 0 0 0 0 0 0 0 0 0 0 1 2 2 1 0 0 0 0 0 0 0 0 0 0 0 0 0 0 0 0 0 0 0 0 0 0
0 0 0 0 0 0 0 0 0 0 0 0 0 0 0 0 0 0 0 0 0 0 0 1 2 3 2 1 0 0 0 0 0 0 0 0 0 0 0 0 0 0 0 0 0 0 0 0 0
0 0 0 0 0 0 0 0 0 0 0 0 0 0 0 0 0 0 0 0 0 0 0 0 1 2 2 1 0 0 0 0 0 0 0 0 0 0 0 0 0 0 0 0 0 0 0 0 0
0 0 0 0 0 0 0 0 0 0 0 0 0 0 0 0 0 0 0 0 0 0 0 0 0 1 2 2 1 0 0 0 0 0 0 0 0 0 0 0 0 0 0 0 0 0 0 0 0
0 0 0 0 0 0 0 0 0 0 0 0 0 0 0 0 0 0 0 0 0 0 0 0 0 0 1 2 2 1 1 1 0 0 0 0 0 0 0 0 0 0 0 0 0 0 0 0 0
0 0 0 0 0 0 0 0 0 0 0 0 0 0 0 0 0 0 0 0 0 0 0 0 0 0 0 1 2 3 2 2 1 0 0 0 0 0 0 0 0 0 0 0 0 0 0 0 0
0 0 0 0 0 0 0 0 0 0 0 0 0 0 0 0 0 0 0 0 0 0 0 0 0 0 0 1 3 3 3 3 2 1 1 0 0 0 0 0 0 0 0 0 0 0 0 0 0
0 0 0 0 0 0 0 0 0 0 0 0 0 0 0 0 0 0 0 0 0 0 0 0 0 0 0 1 2 3 3 3 3 3 2 1 0 0 0 0 0 0 0 0 0 0 0 0 0
0 0 0 0 0 0 0 0 0 0 0 0 0 0 0 0 0 0 0 0 0 0 0 0 0 0 0 1 1 2 2 3 3 3 3 2 1 0 0 0 0 0 0 0 0 0 0 0 0
0 0 0 0 0 0 0 0 0 0 0 0 0 0 0 0 0 0 0 0 0 0 0 0 0 0 0 0 0 1 1 1 2 2 2 2 2 1 0 0 0 0 0 0 0 0 0 0 0
0 0 0 0 0 0 0 0 0 0 0 0 0 0 0 0 0 0 0 0 0 0 0 0 0 0 0 0 0 0 0 0 1 1 1 1 2 1 0 0 0 0 0 0 0 0 0 0 0
0 0 0 0 0 0 0 0 0 0 0 0 0 0 0 0 0 0 0 0 0 0 0 0 0 0 0 0 0 0 0 0 0 0 0 0 1 1 0 0 0 0 0 0 0 0 0 0 0
0 0 0 0 0 0 0 0 0 0 0 0 0 0 0 0 0 0 0 0 0 0 0 0 0 0 0 0 0 0 0 0 0 0 0 0 0 0 0 0 0 0 0 0 0 0 0 0 0
0 0 0 0 0 0 0 0 0 0 0 0 0 0 0 0 0 0 0 0 0 0 0 0 0 0 0 0 0 0 0 0 0 0 0 0 0 0 0 0 0 0 0 0 0 0 0 0 0
0 0 0 0 0 0 0 0 0 0 0 0 0 0 0 0 0 0 0 0 0 0 0 0 0 0 0 0 0 0 0 0 0 0 0 0 0 0 0 0 0 0 0 0 0 0 0 0 0
0 0 0 0 0 0 0 0 0 0 0 0 0 0 0 0 0 0 0 0 0 0 0 0 0 0 0 0 0 0 0 0 0 0 0 0 0 0 0 0 0 0 0 0 0 0 0 0 0
Wind_Speed
9 3 2 4 6 4 2 4 2 1 1 0 1 4 6 6 5 3 1 7 10 11 9 11 12 14 13 13 13 12 12 12 12 12 12 11 12 11 11 11 10 9 9 9 9 9 10 10 10
4 1 4 5 5 1 4 4 4 4 3 3 2 3 3 2 1 4 4 6 10 11 9 10 12 13 14 13 13 12 12 11 11 12 11 11 11 10 10 10 9 8 8 8 8 8 8 8 8
3 2 4 4 4 5 5 4 4 1 3 2 2 1 2 2 3 5 5 9 9 9 8 9 13 14 14 13 13 12 11 11 11 11 11 10 10 9 9 9 8 7 7 7 7 7 7 7 7
3 4 5 3 4 5 5 3 3 3 1 1 3 2 1 1 4 5 8 10 10 8 7 9 13 14 14 13 13 12 12 11 11 11 10 10 9 9 8 8 7 6 6 6 6 6 6 5 5
4 4 2 1 4 4 3 3 4 3 3 2 3 3 1 2 3 8 11 10 11 9 7 9 12 13 13 13 13 12 12 11 11 11 10 9 9 8 8 7 6 6 5 4 4 4 4 3 3
4 4 2 4 5 4 3 3 4 2 2 2 4 4 2 1 5 8 10 9 8 9 7 7 11 11 11 11 11 11 11 10 11 11 10 9 9 8 8 7 6 5 5 4 4 3 2 1 1
3 3 4 5 4 4 3 4 5 4 3 5 6 5 2 1 4 7 8 8 7 7 7 6 6 8 10 10 10 9 9 9 9 9 9 8 8 7 7 6 5 5 5 4 3 2 2 1 1
3 3 3 4 5 5 2 3 3 6 4 2 5 6 5 4 6 7 7 6 6 6 7 7 6 6 6 6 9 9 9 8 8 8 7 7 7 6 6 5 4 5 5 4 4 3 3 3 3
2 2 6 7 7 4 2 2 1 1 4 2 2 3 2 8 10 9 6 6 7 7 7 7 7 6 5 5 7 7 8 8 8 6 7 6 3 4 3 4 5 5 5 5 5 4 4 3 3
3 5 9 5 4 3 2 3 3 3 2 1 1 1 4 9 12 12 10 11 11 11 9 8 8 7 6 5 4 4 4 4 4 4 5 4 3 3 3 4 6 5 5 5 6 5 4 3 1
3 6 4 3 3 3 2 2 2 6 4 6 7 6 7 9 11 12 12 11 11 10 10 9 9 7 7 5 4 3 3 3 4 5 5 4 3 2 3 2 2 3 3 3 3 3 2 2 2
3 4 3 3 2 2 3 2 2 5 7 4 5 8 11 13 14 14 13 11 9 9 11 10 9 8 8 6 5 4 4 4 4 5 6 4 3 3 3 2 3 2 2 2 2 2 3 3 3
4 4 3 3 3 3 2 3 3 5 5 2 3 7 11 13 12 11 9 7 8 9 11 10 10 10 9 7 6 6 6 5 5 5 5 6 4 4 4 3 3 3 3 3 3 3 4 4 4
3 3 4 4 3 2 3 4 3 6 2 2 5 8 10 12 11 8 7 9 10 11 11 10 11 11 10 8 7 6 6 5 5 5 6 7 6 5 4 4 4 4 4 4 4 4 4 4 3
2 3 5 4 4 3 2 6 6 5 2 3 5 7 8 9 8 10 11 11 11 10 9 10 11 10 11 10 9 7 6 6 6 6 6 7 7 6 5 5 4 4 4 4 3 4 3 3 3
1 2 5 4 3 3 6 12 7 4 4 6 6 6 8 8 9 9 9 8 8 7 8 9 8 10 11 10 9 6 6 6 6 5 6 8 8 7 6 5 5 4 4 4 4 3 3 4 4
4 6 7 4 3 3 6 8 5 3 5 6 6 7 7 7 8 9 8 8 8 9 9 9 9 10 11 10 7 6 5 6 5 5 5 6 8 7 6 5 5 4 4 4 4 4 3 4 4
6 6 5 6 3 3 6 8 7 4 4 7 7 6 7 8 11 9 7 8 8 8 8 8 8 9 9 7 5 4 5 5 5 5 6 7 6 7 7 5 5 5 4 4 4 5 4 4 3
3 4 6 5 3 3 8 10 9 6 5 7 7 7 8 10 8 5 6 6 6 7 8 9 9 9 7 5 6 6 7 6 5 6 6 7 7 7 7 6 5 5 5 5 5 4 4 4 2
6 6 6 3 2 3 6 11 9 8 8 8 9 9 9 8 7 6 6 5 7 8 8 9 10 9 9 8 6 4 4 4 4 4 5 6 7 7 7 7 6 6 5 5 5 5 3 3 3
8 9 7 4 2 2 3 8 7 7 7 7 8 8 8 9 9 7 6 6 6 7 9 8 9 9 9 9 5 3 2 2 3 4 5 6 7 7 7 7 7 6 6 6 6 6 6 4 3
9 6 5 4 3 3 2 8 7 5 6 7 8 8 8 7 7 6 5 5 5 6 6 6 6 7 7 7 7 9 7 7 7 5 4 4 6 7 7 7 7 7 6 6 6 6 5 5 4
5 3 4 4 4 4 4 7 8 3 7 8 7 6 6 6 5 5 4 4 3 3 3 3 4 4 5 6 8 8 8 6 4 3 3 4 4 5 6 6 6 7 6 6 6 6 6 5 6
2 1 1 1 2 8 9 8 8 5 8 5 5 4 4 3 3 3 3 2 2 1 0 1 2 3 3 5 6 7 8 7 5 5 5 4 3 3 5 5 6 6 6 6 6 6 6 6 6
2 3 1 2 5 8 5 7 10 5 5 6 5 3 3 2 2 2 3 2 2 2 1 0 1 1 1 3 4 5 6 6 7 6 5 4 3 3 5 5 5 5 5 5 5 5 6 6 6
5 6 6 5 5 4 3 8 7 4 3 2 1 1 1 2 2 3 3 2 2 2 2 2 1 0 0 1 2 3 4 4 3 4 3 3 3 4 3 4 4 5 4 4 4 4 5 4 5
4 5 4 2 2 3 5 5 7 3 2 2 2 3 3 3 3 3 3 3 3 3 3 2 1 1 2 1 0 1 2 2 3 3 3 2 2 2 2 3 3 4 4 4 4 3 4 4 4
5 5 2 4 4 6 5 4 4 2 2 4 5 5 4 4 4 4 4 3 3 3 3 4 3 2 2 2 1 1 1 2 2 2 2 2 2 2 2 2 3 3 3 3 3 3 3 4 4
2 3 3 3 3 4 4 5 3 2 0 2 2 2 3 4 4 4 4 4 4 4 4 4 4 4 4 3 2 1 1 1 1 1 2 2 2 2 2 3 2 2 2 3 3 3 3 3 3
3 4 4 4 4 4 4 7 2 1 1 2 3 4 4 4 3 3 3 4 4 4 4 4 4 3 3 3 2 1 1 1 1 1 1 1 1 1 2 2 2 2 2 3 3 3 3 4 4
Wind_Direction
335 354 82 60 55 52 241 245 214 204 222 225 133 148 155 161 171 200 125 138 135 144 154 157 156 154 152 150 148 146 144 141 138 134 132 127 124 122 118 113 110 107 106 106 103 100 95 89 83
322 359 53 61 91 136 263 245 212 205 180 132 82 98 117 185 162 133 138 152 142 146 151 155 154 155 155 154 153 152 149 146 145 141 138 134 130 127 124 122 117 112 109 108 109 106 100 91 84
342 48 79 81 134 188 229 226 210 195 160 142 96 68 157 190 171 170 169 148 140 145 149 153 153 156 157 158 158 158 157 154 151 149 145 142 138 133 132 129 124 119 115 111 111 110 104 94 84
41 39 56 89 215 217 219 227 186 138 136 114 127 108 302 270 180 172 142 143 142 146 148 155 156 160 160 161 162 163 161 160 158 155 152 149 146 143 140 139 134 130 125 119 115 116 109 99 85
56 72 67 257 246 247 239 223 171 166 178 154 134 144 230 350 114 131 141 147 150 150 151 158 160 162 163 165 167 167 166 166 164 161 160 158 155 153 152 150 148 144 140 135 130 128 118 105 85
56 71 127 230 252 270 257 184 157 171 176 160 144 146 218 58 131 146 147 149 154 154 152 159 164 164 166 168 170 172 173 171 170 168 168 168 167 167 167 167 166 165 161 156 151 144 128 106 58
120 130 196 216 242 264 244 168 172 173 189 199 164 144 240 186 161 145 142 140 147 154 153 159 165 168 170 172 173 175 175 175 175 173 173 172 173 174 173 175 182 183 182 183 183 186 201 247 302
135 132 197 214 218 244 237 181 189 170 200 167 150 158 213 195 145 130 126 137 151 160 165 167 167 167 169 174 179 178 178 180 179 177 174 174 176 176 177 179 192 199 202 205 209 212 229 255 279
105 140 212 213 205 233 217 183 207 164 134 156 207 200 211 137 137 136 139 158 172 180 181 177 175 175 173 175 183 182 184 186 182 180 180 175 174 177 184 195 205 213 220 221 226 228 238 252 277
136 201 220 209 199 222 229 200 180 125 144 195 252 13 113 139 154 163 174 182 188 192 192 189 186 183 179 185 177 179 184 185 182 178 179 174 175 184 188 205 214 223 229 232 235 238 245 252 273
189 211 228 238 222 224 222 230 188 148 199 210 202 185 153 162 171 181 188 191 196 194 194 195 194 190 186 186 178 180 182 184 189 188 185 179 178 184 191 194 217 228 234 236 246 251 243 239 244
220 245 233 244 248 215 211 205 209 194 218 229 212 173 167 177 187 193 195 197 194 194 200 198 196 195 195 191 189 187 190 193 198 198 190 182 186 195 197 201 205 208 210 217 225 230 236 240 245
222 244 256 255 264 247 227 221 224 242 267 275 153 162 180 188 198 203 202 198 196 203 205 202 196 199 198 195 198 198 201 203 203 200 196 192 195 203 204 208 208 211 208 212 219 226 234 240 246
235 250 273 264 250 233 223 252 227 250 244 156 165 186 197 200 201 199 200 204 205 209 210 203 201 201 198 200 202 203 202 204 203 205 203 199 201 203 204 210 211 213 210 213 215 221 228 237 239
244 275 287 255 225 216 193 261 228 238 203 208 205 206 211 218 212 210 209 210 210 211 210 207 205 201 201 204 206 205 203 201 206 209 204 204 204 204 204 208 213 215 209 211 217 226 229 241 242
182 210 247 249 208 200 177 245 245 222 198 227 230 224 224 226 224 226 220 218 214 211 209 210 205 202 205 206 205 206 202 202 209 208 205 206 207 203 202 209 216 209 201 204 212 217 228 240 244
190 213 227 249 222 200 200 242 253 226 206 233 238 234 233 237 241 237 226 219 214 211 211 210 206 205 206 206 203 203 200 204 207 204 205 205 205 203 203 212 212 199 202 209 216 219 219 237 247
198 205 218 221 243 207 229 249 267 270 230 241 249 248 242 240 242 238 231 225 219 215 212 212 210 210 204 199 196 198 205 213 210 209 210 203 203 201 204 212 208 197 204 213 216 225 223 231 243
218 217 234 237 238 218 240 254 258 262 254 251 251 247 243 245 251 250 237 230 223 217 212 212 211 210 195 189 196 202 213 213 212 214 211 207 205 201 204 211 205 201 209 214 212 217 227 234 219
236 241 247 269 238 221 253 263 257 245 236 234 238 241 242 249 260 253 243 233 222 220 218 217 216 209 199 199 195 194 191 199 206 202 204 206 205 203 204 209 209 204 208 213 213 210 217 224 195
233 225 223 241 301 273 288 280 252 251 241 241 238 241 242 238 244 251 246 234 229 226 220 219 218 212 206 198 176 162 155 174 192 205 210 211 207 206 207 210 208 206 208 216 215 209 211 225 215
238 220 210 220 228 255 205 271 258 240 249 246 243 242 245 246 245 250 253 248 236 235 229 221 218 211 207 193 189 190 197 208 213 207 205 202 204 209 210 213 210 212 213 219 219 213 212 213 226
228 205 206 216 225 254 221 254 271 221 240 245 247 248 253 251 244 248 250 245 249 246 231 219 209 211 205 195 198 198 207 216 207 186 191 201 203 209 212 213 213 216 216 218 216 213 214 216 222
193 69 345 200 201 241 218 219 268 219 223 226 231 244 261 277 279 278 285 291 308 342 323 211 188 209 201 194 197 198 203 206 199 200 206 211 209 210 215 215 215 217 217 217 217 215 216 220 222
183 152 190 230 218 240 201 212 252 239 227 213 220 241 271 294 313 321 335 342 349 3 1 9 151 198 199 182 191 198 203 203 207 210 213 213 215 220 223 216 218 220 222 221 217 216 220 220 219
209 192 193 206 222 260 208 228 255 265 268 253 233 246 309 339 343 341 338 346 356 359 8 29 49 24 163 167 191 193 195 200 209 212 207 213 221 225 223 215 218 221 220 219 218 219 223 221 222
187 217 212 206 275 270 243 267 300 308 343 7 16 24 8 2 3 357 358 7 12 9 5 12 36 29 14 27 148 181 196 203 208 209 204 210 216 217 214 208 210 216 216 217 214 218 223 219 223
188 175 169 191 207 238 264 249 243 283 338 5 14 12 359 357 359 358 2 3 6 7 6 13 20 16 5 16 20 334 234 223 220 209 206 207 218 209 198 206 210 215 217 213 209 220 223 219 227
175 188 198 193 194 206 253 261 238 221 288 350 350 348 337 337 342 348 353 358 5 13 14 12 12 12 8 6 1 351 329 303 236 211 219 224 226 214 211 209 210 213 223 222 214 217 212 214 223
191 197 189 205 237 223 243 262 275 168 351 353 331 332 338 343 349 350 355 2 7 7 2 1 359 360 353 352 352 344 338 348 345 289 260 240 231 227 218 209 208 211 215 221 216 218 215 213 220